NV6B Weather Reports


Display with metric or nautical units.
time (UTC)temp
F
wind
direction
speed
MPH
gust
MPH
rain 1hr
in
rain 24hr
in
rain mn
in
humidity
%
barometer
mb
20260507081617 61 274 2.0 3.0 0.00 0.00 0.00 67 1009.6
20260507080617 62 276 0.0 0.0 0.00 0.00 0.00 66 1009.7
20260507075617 62 276 2.0 3.0 0.00 0.00 0.00 65 1009.6
20260507074617 62 293 3.0 3.0 0.00 0.00 0.00 66 1009.5
20260507073637 62 348 0.0 0.0 0.00 0.00 0.00 64 1009.5
20260507072617 62 348 0.0 0.0 0.00 0.00 0.00 63 1009.6
20260507071637 63 348 0.0 0.0 0.00 0.00 0.00 63 1009.6
20260507070616 63 348 0.0 0.0 0.00 0.00 0.00 63 1009.4
20260507065617 64 348 0.0 0.0 0.00 0.00 0.00 61 1009.4
20260507064616 64 348 0.0 0.0 0.00 0.00 0.00 59 1009.5
20260507063616 65 348 0.0 0.0 0.00 0.00 0.00 59 1009.4
20260507062616 66 348 0.0 1.0 0.00 0.00 0.00 57 1009.3
20260507061616 66 348 1.0 3.0 0.00 0.00 0.00 56 1009.3
20260507060617 66 348 3.0 3.0 0.00 0.00 0.00 55 1009.3
20260507002613 81 34 0.0 3.0 0.00 0.00 0.00 36 1009.1
20260507001613 82 7 3.0 5.0 0.00 0.00 0.00 34 1009.0
20260507000633 82 40 2.0 5.0 0.00 0.00 0.00 34 1009.0
20260506235613 82 29 3.0 6.0 0.00 0.00 0.00 34 1009.1
20260506234613 82 53 2.0 6.0 0.00 0.00 0.00 34 1009.3
20260506233613 83 49 6.0 6.0 0.00 0.00 0.00 34 1009.4
20260506232612 83 62 3.0 5.0 0.00 0.00 0.00 32 1009.6
20260506202611 76 97 3.0 6.0 0.00 0.00 0.00 34 1012.9
20260506201611 79 84 3.0 7.0 0.00 0.00 0.00 32 1013.1
20260506200610 76 81 2.0 6.0 0.00 0.00 0.00 33 1013.2
20260506195610 76 36 3.0 9.0 0.00 0.00 0.00 32 1013.3
20260506131606 47 93 4.0 11.0 0.00 0.00 0.00 57 1014.1
20260506130606 47 106 4.0 10.0 0.00 0.00 0.00 56 1014.0
20260506125606 47 89 8.0 10.0 0.00 0.00 0.00 56 1013.8
20260506124606 48 101 2.0 10.0 0.00 0.00 0.00 55 1013.7
20260506123606 48 121 3.0 9.0 0.00 0.00 0.00 55 1013.5
20260506122606 47 135 6.0 12.0 0.00 0.00 0.00 56 1013.5
20260506121606 47 116 5.0 10.0 0.00 0.00 0.00 57 1013.3
20260506120606 48 114 3.0 10.0 0.00 0.00 0.00 58 1013.2
20260506115606 48 106 7.0 10.0 0.00 0.00 0.00 57 1013.1
20260506114605 49 104 6.0 7.0 0.00 0.00 0.00 55 1013.1
20260506113605 50 102 3.0 7.0 0.00 0.00 0.00 54 1013.1
20260506112606 50 140 3.0 8.0 0.00 0.00 0.00 53 1012.9